[[{"header":{"parameterUnit":"m.s-1","parameterCategory":2,"la1":30.2991,"la2":30.254,"lo1":-89.0895,"lo2":-89.0444,"dy":0.0017,"dx":0.0017,"nx":28,"ny":28,"refTime":"2025-07-29T21:00:00:Z","depth":"0","parameterNumber":2,"parameterNumberName":"U-component_of_CURRENTS"},"data":[0,0,0,0,0,0,0,0,0,0,0,0,0,0,0,0,0,0,0,0,0,0,0,0,0,0,0,0,0,0,0,0,0,0,0,0,0,0,0,0,0,0,0,0,0,0,0,0,0,0,0,0,0,0,0,0,0,0,0.2084,0.2085,0,0.2143,0.2143,0.2144,0.2174,0.2174,0.2175,0.2175,0.2234,0.2235,0.2236,0,0,0,0,0,0,0,0,0,0,0,0,0,0.2029,0.2029,0.2084,0.2085,0.2086,0.2143,0.2143,0.2144,0.2174,0.2174,0.2175,0.2175,0.2233,0.2235,0.2237,0,0,0,0,0,0,0,0,0,0,0,0,0,0.2065,0.2029,0.2084,0.2109,0.2112,0.2142,0.2143,0.2144,0.2174,0.2174,0.2175,0.2175,0.2233,0.2235,0.2237,0.2244,0,0,0.2243,0.2244,0,0,0,0,0,0,0,0,0.2063,0.2067,0.2104,0.2107,0.2111,0.2153,0.2145,0.2178,0.2174,0.2149,0.2175,0.2175,0.2208,0.2212,0.222,0.2247,0.2249,0.2243,0.2245,0.2246,0.2246,0,0,0,0,0,0,0,0.206,0.2064,0.2106,0.2105,0.2109,0.2128,0.2133,0.2152,0.2175,0.2151,0.2154,0.2163,0.2209,0.2218,0.2221,0.225,0.2243,0.2245,0.2246,0.2247,0.2307,0.2307,0,0,0,0,0,0,0.2054,0.2062,0.2104,0.2108,0.2089,0.2128,0.2134,0.2138,0.2175,0.2181,0.2163,0.2164,0.2214,0.2219,0.2224,0.2258,0.2245,0.2247,0.2249,0.2307,0.2307,0.2307,0,0,0,0,0,0,0.2053,0.2057,0.2101,0.2088,0.2095,0.2129,0.2133,0.2139,0.2149,0.2184,0.219,0.2168,0.2214,0.2221,0.2242,0.2259,0.2248,0.225,0.2306,0.2307,0.2307,0.231,0,0,0,0,0,0,0.2051,0.2056,0.2055,0.2087,0.2095,0.2111,0.2133,0.214,0.2155,0.2158,0.219,0.2196,0.2215,0.2239,0.2244,0.2262,0.2252,0.2306,0.2306,0.2307,0.231,0.2311,0.2312,0,0,0,0,0,0.2048,0.2049,0.2055,0.206,0.2094,0.2111,0.2116,0.2141,0.2155,0.2153,0.2181,0.2195,0.2247,0.2241,0.2247,0.2266,0.2305,0.2306,0.2307,0.2309,0.2311,0.2312,0,0,0,0,0,0,0.2031,0.2053,0.206,0.2069,0.2083,0.2116,0.2122,0.2139,0.216,0.2165,0.2197,0.2204,0.2234,0.2243,0.2235,0.2284,0.228,0.2281,0.2279,0.2281,0.2282,0.2301,0.2254,0,0,0,0,0,0.2025,0.2026,0.205,0.2056,0.2062,0.209,0.2101,0.2116,0.2141,0.2151,0.2176,0.2206,0.2241,0.2254,0.2279,0.2299,0.235,0.2315,0.2316,0.2317,0.2336,0.2432,0.2445,0.231,0.231,0.231,0,0,0.2023,0.2033,0.2036,0.2052,0.2067,0.208,0.2097,0.211,0.213,0.2154,0.2184,0.221,0.2248,0.2278,0.2291,0.2287,0.2379,0.2318,0.2319,0.2338,0.2435,0.2448,0.246,0.231,0.231,0.231,0,0,0.2023,0.2024,0.2028,0.2034,0.2051,0.2068,0.207,0.2097,0.2116,0.2138,0.2176,0.2215,0.2243,0.229,0.2316,0.2336,0.2384,0.2334,0.2354,0.2446,0.2459,0.2471,0.2542,0.256,0.2331,0.2331,0.2331,0,0.2026,0.2032,0.2031,0.2035,0.2051,0.2062,0.2078,0.2094,0.2127,0.2159,0.2143,0.224,0.2258,0.2341,0.2343,0.2342,0.2395,0.2346,0.2451,0.2463,0.2476,0.2546,0.2566,0.2331,0.2331,0.2331,0.2331,0,0.2033,0.2034,0.2036,0.2047,0.2055,0.2067,0.2089,0.2105,0.2124,0.2156,0.2225,0.2259,0.2325,0.233,0.2339,0.2437,0.2446,0.2445,0.2452,0.249,0.2561,0.2582,0.2332,0.2332,0.2332,0.2332,0,0,0.2081,0.2048,0.2054,0.2057,0.2066,0.208,0.2103,0.2151,0.2191,0.2216,0.2287,0.234,0.237,0.2402,0.243,0.2495,0.2608,0.25,0.2504,0.2578,0.2809,0.2764,0.2782,0.263,0.2633,0.2636,0.2821,0,0.2104,0.2099,0.2084,0.2101,0.2112,0.2118,0.2144,0.2181,0.2216,0.2276,0.2337,0.2402,0.2396,0.2431,0.2501,0.2585,0.2665,0.2558,0.2756,0.2761,0.2723,0.2806,0.2712,0.2864,0.2841,0.2845,0.2848,0,0.2152,0.2135,0.214,0.2138,0.2146,0.2152,0.221,0.2231,0.2307,0.2337,0.2415,0.2461,0.257,0.2545,0.2737,0.267,0.2748,0.2803,0.2812,0.2789,0.2756,0.2824,0.2904,0.2763,0.288,0.2878,0.2875,0,0.2223,0.2199,0.2201,0.2198,0.2186,0.2199,0.2205,0.226,0.2296,0.2387,0.243,0.2556,0.2622,0.2748,0.2842,0.2811,0.3041,0.3016,0.3059,0.3055,0.3025,0.3012,0.3001,0.3176,0.3176,0.3175,0.3175,0,0.2286,0.2302,0.2222,0.2229,0.2246,0.2226,0.227,0.2298,0.2347,0.2399,0.2469,0.2545,0.2677,0.2804,0.2894,0.3041,0.3097,0.3096,0.3116,0.3018,0.3004,0.2918,0.2827,0.3182,0.3181,0.3179,0.3178,0,0.2396,0.234,0.2346,0.2296,0.2282,0.23,0.2288,0.2313,0.2356,0.2429,0.2461,0.2576,0.2734,0.2861,0.3061,0.3102,0.3151,0.3282,0.314,0.3139,0.3017,0.2931,0.2906,0.2857,0.3374,0.3374,0.3375,0,0.2456,0.2455,0.2396,0.2375,0.235,0.2345,0.2333,0.2336,0.2351,0.2447,0.2485,0.2641,0.2746,0.3006,0.3128,0.3303,0.3174,0.3283,0.3205,0.3023,0.2943,0.2811,0.2761,0.317,0.3169,0.3168,0.3167,0,0.2554,0.2523,0.2499,0.2445,0.2411,0.2389,0.2363,0.2374,0.2379,0.2431,0.2508,0.2598,0.2828,0.2948,0.3142,0.3236,0.3086,0.3262,0.3132,0.2837,0.264,0.2596,0.3015,0.3156,0.3157,0.3157,0.3158,0.3158,0.2614,0.2607,0.2534,0.2492,0.2454,0.2406,0.2371,0.2353,0.2364,0.2389,0.2493,0.2578,0.2731,0.2998,0.3082,0.3067,0.3049,0.2978,0.2911,0.2812,0.2679,0.3056,0.3168,0.3169,0.317,0.3171,0.3172,0,0.2629,0.2593,0.2567,0.2483,0.2429,0.2407,0.2357,0.2298,0.2274,0.2344,0.2396,0.2496,0.2605,0.2726,0.2782,0.2706,0.2658,0.2606,0.2394,0.2387,0.2792,0.2693,0.2634,0.2634,0.2634,0.2634,0.2635,0.2635,0.2621,0.2574,0.254,0.244,0.2386,0.2275,0.2227,0.2174,0.218,0.2166,0.2188,0.2254,0.2316,0.2327,0.2277,0.2278,0.2122,0.2035,0.203,0.227,0.2298,0.2324,0.2211,0.2052,0.2051,0.1584,0.158,0.1577]},{"header":{"parameterUnit":"m.s-1","parameterCategory":2,"la1":30.2991,"la2":30.254,"lo1":-89.0895,"lo2":-89.0444,"dy":0.0017,"dx":0.0017,"nx":28,"ny":28,"refTime":"2025-07-29T21:00:00:Z","depth":"0","parameterNumber":3,"parameterNumberName":"V-component_of_CURRENTS"},"data":[0,0,0,0,0,0,0,0,0,0,0,0,0,0,0,0,0,0,0,0,0,0,0,0,0,0,0,0,0,0,0,0,0,0,0,0,0,0,0,0,0,0,0,0,0,0,0,0,0,0,0,0,0,0,0,0,0,0,0.0386,0.0385,0,0.0337,0.0336,0.0335,0.0294,0.0294,0.0293,0.0293,0.0193,0.0191,0.0188,0,0,0,0,0,0,0,0,0,0,0,0,0,0.042,0.0419,0.0386,0.0385,0.0384,0.0337,0.0336,0.0335,0.0294,0.0294,0.0293,0.0293,0.0194,0.0191,0.0188,0,0,0,0,0,0,0,0,0,0,0,0,0,0.0391,0.0419,0.0386,0.0358,0.0355,0.0337,0.0336,0.0335,0.0294,0.0294,0.0293,0.0293,0.0195,0.0191,0.0188,0.018,0,0,0.0177,0.0176,0,0,0,0,0,0,0,0,0.0393,0.039,0.0363,0.036,0.0357,0.0321,0.0311,0.0281,0.0295,0.0317,0.0293,0.0292,0.0232,0.0225,0.0218,0.0175,0.0171,0.0177,0.0175,0.0174,0.0173,0,0,0,0,0,0,0,0.0395,0.0392,0.0366,0.0362,0.0359,0.034,0.0336,0.0305,0.0278,0.0315,0.0312,0.0307,0.0229,0.0221,0.0215,0.0169,0.0177,0.0174,0.0172,0.0171,0.0139,0.014,0,0,0,0,0,0,0.0403,0.0394,0.0368,0.0365,0.0374,0.034,0.0335,0.0333,0.0279,0.0271,0.0308,0.0306,0.0227,0.0219,0.0211,0.0229,0.0174,0.017,0.0169,0.0137,0.0139,0.014,0,0,0,0,0,0,0.0404,0.0402,0.037,0.0378,0.0372,0.0341,0.0338,0.0332,0.0325,0.0274,0.0264,0.0307,0.0227,0.0216,0.0198,0.0223,0.0169,0.0166,0.0136,0.0138,0.014,0.0244,0,0,0,0,0,0,0.0405,0.0402,0.0405,0.0379,0.0372,0.0369,0.0339,0.0332,0.0323,0.032,0.027,0.026,0.0225,0.0203,0.0194,0.0218,0.0163,0.0135,0.0137,0.0139,0.024,0.025,0.0258,0,0,0,0,0,0.0407,0.0412,0.0405,0.0402,0.0376,0.037,0.0366,0.034,0.0324,0.0329,0.0299,0.0262,0.0211,0.0202,0.0191,0.0214,0.0133,0.0136,0.0139,0.0235,0.0248,0.0258,0,0,0,0,0,0,0.0422,0.0407,0.0399,0.0398,0.0391,0.0363,0.0362,0.0347,0.0327,0.032,0.0273,0.0262,0.0257,0.022,0.0211,0.0212,0.0167,0.0168,0.0245,0.0256,0.0265,0.028,0.016,0,0,0,0,0,0.0429,0.0432,0.0416,0.0417,0.0415,0.0392,0.0385,0.0369,0.0348,0.0338,0.0311,0.0279,0.026,0.0246,0.0221,0.0217,0.0194,0.0226,0.0235,0.0243,0.0249,0.0245,0.0254,0.0149,0.0149,0.0149,0,0,0.0433,0.0427,0.0427,0.0421,0.0411,0.0422,0.0386,0.0381,0.0393,0.033,0.0339,0.0309,0.0267,0.0269,0.0264,0.0241,0.0263,0.0247,0.0254,0.0255,0.0248,0.0259,0.0268,0.0151,0.015,0.015,0,0,0.0449,0.0442,0.0452,0.0454,0.0447,0.0441,0.0444,0.0428,0.0424,0.0424,0.0391,0.0383,0.0344,0.0334,0.0319,0.0364,0.0314,0.0351,0.0408,0.0405,0.0413,0.0421,0.0416,0.0422,0.0354,0.0355,0.0355,0,0.0452,0.0468,0.0455,0.047,0.0481,0.0456,0.0479,0.0475,0.0458,0.0467,0.0438,0.0417,0.038,0.0396,0.041,0.0387,0.0371,0.0371,0.0418,0.0425,0.043,0.0423,0.0429,0.036,0.0359,0.0359,0.0358,0,0.048,0.0496,0.0504,0.0524,0.0535,0.0548,0.0549,0.0562,0.0553,0.0548,0.056,0.052,0.0509,0.0499,0.0463,0.0493,0.0465,0.0433,0.0393,0.0448,0.0436,0.044,0.0368,0.0366,0.0364,0.0363,0,0,0.048,0.0517,0.0521,0.0548,0.0567,0.058,0.0615,0.0643,0.067,0.0654,0.0689,0.0661,0.064,0.0622,0.0586,0.0577,0.0605,0.0524,0.0522,0.0526,0.0596,0.0565,0.0565,0.0579,0.058,0.058,0.0576,0,0.0507,0.0553,0.0568,0.0624,0.0653,0.0664,0.0703,0.0724,0.0732,0.0761,0.0734,0.0742,0.0687,0.0683,0.0673,0.0619,0.0617,0.0609,0.0536,0.0534,0.0505,0.057,0.0583,0.0579,0.0579,0.058,0.058,0,0.0533,0.0565,0.062,0.0689,0.0703,0.0734,0.0801,0.083,0.0863,0.0869,0.0878,0.0852,0.0851,0.0787,0.0744,0.0739,0.068,0.0633,0.0631,0.0566,0.051,0.0521,0.0585,0.0522,0.0585,0.0585,0.0584,0,0.0545,0.0608,0.0657,0.0677,0.0742,0.0777,0.0814,0.086,0.0894,0.0936,0.0957,0.0953,0.0942,0.0885,0.0788,0.0769,0.0727,0.0688,0.061,0.0607,0.0586,0.0579,0.0585,0.0662,0.0662,0.0662,0.0662,0,0.0572,0.0614,0.0665,0.0691,0.0759,0.0799,0.0867,0.0906,0.096,0.1005,0.1007,0.1035,0.0961,0.0924,0.0834,0.074,0.0766,0.0637,0.0611,0.0623,0.062,0.0534,0.0477,0.0662,0.0662,0.0662,0.0662,0,0.0576,0.0608,0.0666,0.0736,0.0762,0.0807,0.0889,0.0932,0.0989,0.1049,0.1064,0.1095,0.1065,0.0983,0.0892,0.0795,0.0671,0.0662,0.0681,0.0657,0.0524,0.0471,0.0429,0.042,0.0594,0.0593,0.0593,0,0.0585,0.0611,0.0682,0.0709,0.0739,0.0807,0.0851,0.0931,0.0979,0.108,0.1107,0.1122,0.1145,0.1023,0.0872,0.0743,0.0663,0.0638,0.0602,0.0536,0.0458,0.0431,0.0426,0.0621,0.0621,0.0621,0.062,0,0.0595,0.0609,0.0645,0.0699,0.0745,0.0812,0.0885,0.0933,0.1027,0.1095,0.1185,0.1226,0.1149,0.1059,0.0882,0.0769,0.0605,0.0627,0.0563,0.0489,0.0458,0.043,0.0599,0.0618,0.0619,0.0619,0.0619,0.0619,0.0587,0.0604,0.0637,0.0689,0.0742,0.0813,0.0867,0.0956,0.1052,0.1192,0.1232,0.1342,0.1222,0.101,0.0844,0.0575,0.0578,0.0499,0.0445,0.0428,0.0409,0.057,0.0551,0.0551,0.0551,0.0551,0.0551,0,0.0574,0.0588,0.0628,0.0688,0.0736,0.0779,0.0884,0.0954,0.1069,0.1241,0.1352,0.1399,0.1213,0.1004,0.0633,0.0434,0.0385,0.0342,0.0321,0.0327,0.048,0.0472,0.0431,0.0431,0.0431,0.0431,0.0431,0.0431,0.0564,0.0578,0.0599,0.0664,0.071,0.0787,0.0846,0.0974,0.1119,0.1338,0.1474,0.1576,0.1415,0.0774,0.0363,0.0275,0.0182,0.0147,0.0108,0.021,0.0222,0.0232,0.0214,0.012,0.0119,0.0013,0.0012,0.001]}],[{"header":{"parameterUnit":"m.s-1","parameterCategory":2,"la1":30.2991,"la2":30.254,"lo1":-89.0895,"lo2":-89.0444,"dy":0.0017,"dx":0.0017,"nx":28,"ny":28,"refTime":"2025-07-29T21:00:00:Z","depth":"2","parameterNumber":2,"parameterNumberName":"U-component_of_CURRENTS"},"data":[0,0,0,0,0,0,0,0,0,0,0,0,0,0,0,0,0,0,0,0,0,0,0,0,0,0,0,0,0,0,0,0,0,0,0,0,0,0,0,0,0,0,0,0,0,0,0,0,0,0,0,0,0,0,0,0,0,0,0.0797,0.0797,0,0.08,0.08,0.08,0.0829,0.083,0.0831,0.0832,0.0856,0.0856,0.0856,0,0,0,0,0,0,0,0,0,0,0,0,0,0.0809,0.0808,0.0797,0.0797,0.0797,0.08,0.08,0.08,0.0829,0.083,0.0831,0.0832,0.0856,0.0856,0.0856,0,0,0,0,0,0,0,0,0,0,0,0,0,0.0806,0.0808,0.0797,0.0813,0.0814,0.08,0.08,0.08,0.0829,0.083,0.0831,0.0832,0.0856,0.0856,0.0856,0.0831,0,0,0.0856,0.0856,0,0,0,0,0,0,0,0,0.0806,0.0806,0.081,0.0812,0.0813,0.0816,0.0813,0.0812,0.0829,0.0822,0.0832,0.0833,0.0844,0.0845,0.0842,0.0832,0.0834,0.0856,0.0856,0.0855,0.0855,0,0,0,0,0,0,0,0.0807,0.0806,0.0798,0.081,0.0812,0.0817,0.0818,0.0813,0.0826,0.0823,0.0825,0.0827,0.0845,0.0842,0.0843,0.0834,0.0856,0.0855,0.0855,0.0855,0.09,0.0902,0,0,0,0,0,0,0.0807,0.0806,0.0797,0.0798,0.0814,0.0816,0.0817,0.0813,0.0826,0.0829,0.0826,0.0828,0.0841,0.0843,0.0844,0.0906,0.0855,0.0855,0.0855,0.0899,0.0901,0.0902,0,0,0,0,0,0,0.0807,0.0806,0.0797,0.0803,0.0802,0.0815,0.081,0.0813,0.0829,0.0828,0.0832,0.0841,0.0842,0.0844,0.0867,0.0904,0.0855,0.0855,0.0898,0.09,0.0901,0.0972,0,0,0,0,0,0,0.0807,0.0805,0.0807,0.0803,0.0802,0.08,0.0809,0.0812,0.0827,0.0831,0.0842,0.0845,0.0844,0.0867,0.0866,0.0903,0.0855,0.0896,0.0898,0.0901,0.0968,0.0976,0.0983,0,0,0,0,0,0.0807,0.0801,0.0807,0.0806,0.0802,0.08,0.08,0.0812,0.0827,0.0832,0.0852,0.0845,0.0882,0.0867,0.0867,0.0904,0.0895,0.0898,0.0901,0.0965,0.0974,0.0983,0,0,0,0,0,0,0.0807,0.0803,0.081,0.0804,0.0808,0.0805,0.081,0.082,0.0837,0.0849,0.0853,0.0857,0.0893,0.0883,0.0867,0.0924,0.089,0.0893,0.0939,0.0948,0.0955,0.0979,0.0855,0,0,0,0,0,0.0807,0.0804,0.0803,0.0802,0.0804,0.0811,0.0814,0.0824,0.0836,0.0845,0.086,0.0878,0.0898,0.0912,0.092,0.0943,0.0939,0.0968,0.0976,0.0982,0.1001,0.1022,0.1033,0.0911,0.0911,0.0911,0,0,0.0808,0.0805,0.0805,0.0802,0.0807,0.0815,0.0816,0.0826,0.085,0.0844,0.0886,0.09,0.0909,0.0945,0.0961,0.0946,0.1014,0.0986,0.0991,0.1007,0.1026,0.1038,0.1049,0.0913,0.0913,0.0913,0,0,0.0808,0.0806,0.0806,0.0811,0.082,0.0825,0.0833,0.0845,0.0869,0.0903,0.0915,0.0954,0.0975,0.0999,0.1012,0.1061,0.1049,0.1066,0.1128,0.1148,0.1158,0.1167,0.1173,0.1182,0.1074,0.1074,0.1074,0,0.0814,0.0816,0.0808,0.0813,0.0828,0.0834,0.0852,0.0867,0.0893,0.0923,0.0929,0.0998,0.1006,0.1062,0.1095,0.108,0.1086,0.1094,0.1158,0.1167,0.1176,0.1179,0.1188,0.1077,0.1077,0.1077,0.1076,0,0.0817,0.0826,0.0827,0.0841,0.085,0.0867,0.0887,0.0915,0.095,0.0975,0.1045,0.1067,0.1117,0.1127,0.1135,0.1204,0.1187,0.1162,0.1137,0.1192,0.1192,0.12,0.1083,0.1082,0.108,0.1079,0,0,0.0831,0.0831,0.084,0.0852,0.0875,0.0882,0.0927,0.0971,0.1012,0.1059,0.1122,0.1184,0.1213,0.1231,0.1244,0.1274,0.1338,0.1261,0.126,0.1269,0.1383,0.1355,0.136,0.133,0.1332,0.1334,0.1358,0,0.0851,0.0857,0.0866,0.0899,0.0906,0.0937,0.0975,0.1017,0.1063,0.112,0.1171,0.1231,0.1245,0.1286,0.1324,0.1336,0.1366,0.1334,0.1327,0.1327,0.1297,0.1371,0.1185,0.1191,0.1365,0.1367,0.1368,0,0.0871,0.087,0.0895,0.0926,0.0938,0.0975,0.1046,0.1081,0.1153,0.1193,0.1269,0.1299,0.1383,0.1368,0.1439,0.1423,0.1426,0.1421,0.1421,0.138,0.1315,0.1165,0.1199,0.1381,0.138,0.1379,0.1378,0,0.0878,0.0905,0.0927,0.0937,0.0966,0.1017,0.1058,0.1124,0.1154,0.1254,0.1289,0.1377,0.1434,0.1461,0.1502,0.1473,0.1555,0.1495,0.1464,0.146,0.1294,0.1273,0.1535,0.1535,0.1535,0.1535,0.1535,0,0.0892,0.092,0.0942,0.095,0.0997,0.1036,0.1101,0.1153,0.1222,0.1265,0.1342,0.14,0.1466,0.1521,0.1527,0.155,0.1581,0.1501,0.1479,0.1312,0.1294,0.1448,0.1438,0.1536,0.1536,0.1536,0.1536,0,0.0898,0.0909,0.0931,0.0974,0.0994,0.1038,0.1105,0.1137,0.1225,0.1286,0.1324,0.1433,0.1535,0.158,0.1631,0.1583,0.1593,0.1585,0.1391,0.1348,0.1465,0.1458,0.1528,0.1527,0.1527,0.1526,0.1526,0,0.0891,0.0899,0.0932,0.0938,0.0972,0.103,0.1052,0.1133,0.1163,0.1305,0.1328,0.1469,0.1537,0.1614,0.1546,0.1533,0.164,0.1387,0.1297,0.1501,0.1472,0.1465,0.1459,0.1091,0.1087,0.1084,0.1082,0,0.0867,0.0894,0.0901,0.0907,0.0939,0.0958,0.1019,0.1037,0.114,0.1208,0.1333,0.1409,0.1463,0.1403,0.1404,0.1358,0.1373,0.1323,0.1596,0.1135,0.1095,0.1065,0.1072,0.1054,0.1057,0.1059,0.106,0.1061,0.0846,0.0848,0.0849,0.0873,0.089,0.0907,0.0931,0.0983,0.1041,0.1145,0.1249,0.1316,0.1226,0.1141,0.1122,0.1121,0.1171,0.112,0.1127,0.1137,0.1096,0.1059,0.1002,0.1005,0.1007,0.1008,0.101,0,0.0777,0.08,0.0804,0.0813,0.082,0.087,0.0904,0.0915,0.0983,0.1062,0.1151,0.0967,0.0905,0.0951,0.0842,0.0783,0.0725,0.083,0.0756,0.078,0.0803,0.0745,0.0558,0.0558,0.0558,0.0557,0,0,0.0732,0.0713,0.0729,0.0735,0.0779,0.0811,0.0848,0.0871,0.0907,0.0911,0.0931,0.0881,0.0871,0.0684,0.0617,0.0645,0.0729,0.061,0.0951,0.0889,0.0913,0.0923,0.0855,0,0,0,0,0]},{"header":{"parameterUnit":"m.s-1","parameterCategory":2,"la1":30.2991,"la2":30.254,"lo1":-89.0895,"lo2":-89.0444,"dy":0.0017,"dx":0.0017,"nx":28,"ny":28,"refTime":"2025-07-29T21:00:00:Z","depth":"2","parameterNumber":3,"parameterNumberName":"V-component_of_CURRENTS"},"data":[0,0,0,0,0,0,0,0,0,0,0,0,0,0,0,0,0,0,0,0,0,0,0,0,0,0,0,0,0,0,0,0,0,0,0,0,0,0,0,0,0,0,0,0,0,0,0,0,0,0,0,0,0,0,0,0,0,0,0.0265,0.0264,0,0.0196,0.0196,0.0195,0.0149,0.0149,0.0149,0.0148,0.0034,0.0031,0.0029,0,0,0,0,0,0,0,0,0,0,0,0,0,0.0319,0.0318,0.0265,0.0264,0.0263,0.0197,0.0196,0.0194,0.0149,0.0149,0.0149,0.0148,0.0035,0.0032,0.0028,0,0,0,0,0,0,0,0,0,0,0,0,0,0.0277,0.0318,0.0265,0.0234,0.023,0.0197,0.0195,0.0194,0.0149,0.0149,0.0149,0.0148,0.0036,0.0032,0.0028,0.0007,0,0,0.0015,0.0013,0,0,0,0,0,0,0,0,0.0279,0.0274,0.0239,0.0236,0.0232,0.0182,0.0173,0.013,0.0149,0.0179,0.0148,0.0148,0.008,0.0073,0.0059,0.0002,-0.0003,0.0014,0.0012,0.001,0.0009,0,0,0,0,0,0,0,0.0282,0.0277,0.0236,0.0238,0.0234,0.021,0.0204,0.0164,0.013,0.0176,0.0173,0.0167,0.0078,0.0064,0.0056,-0.0005,0.0015,0.0011,0.0008,0.0006,-0.0127,-0.0128,0,0,0,0,0,0,0.0295,0.028,0.0239,0.0234,0.0257,0.021,0.0203,0.0197,0.0131,0.0122,0.0168,0.0166,0.0071,0.0061,0.0052,0.0004,0.001,0.0006,0.0004,-0.0126,-0.0127,-0.0128,0,0,0,0,0,0,0.0297,0.0292,0.0241,0.0257,0.0249,0.021,0.0203,0.0196,0.0177,0.0126,0.0115,0.0157,0.007,0.0058,0.0007,0.0,0.0004,0.0,-0.0125,-0.0126,-0.0128,-0.0078,0,0,0,0,0,0,0.0299,0.0293,0.029,0.0258,0.0248,0.0222,0.0204,0.0195,0.0175,0.0172,0.0113,0.0102,0.0069,0.0014,0.0003,-0.0005,-0.0003,-0.0124,-0.0125,-0.0127,-0.0079,-0.0078,-0.0077,0,0,0,0,0,0.0301,0.0294,0.0291,0.0285,0.0247,0.0222,0.0214,0.0185,0.0175,0.0167,0.0122,0.0104,-0.0006,0.001,-0.0003,-0.0013,-0.0123,-0.0125,-0.0127,-0.0079,-0.0078,-0.0077,0,0,0,0,0,0,0.0308,0.0288,0.0283,0.0269,0.025,0.0214,0.02,0.0186,0.0146,0.0138,0.0092,0.0078,0.0031,-0.0002,0.0016,-0.0059,-0.0068,-0.0073,-0.0027,-0.0027,-0.0026,-0.0007,-0.0007,0,0,0,0,0,0.0313,0.0305,0.0283,0.0271,0.0263,0.0235,0.022,0.0203,0.0167,0.0149,0.0109,0.0059,0.0012,-0.0014,-0.0059,-0.0099,-0.0131,-0.0116,-0.0115,-0.0114,-0.0109,-0.0175,-0.0179,-0.0135,-0.0135,-0.0135,0,0,0.0311,0.0299,0.0293,0.0273,0.0254,0.0241,0.0224,0.0203,0.0188,0.0142,0.0103,0.0061,0.0001,-0.0043,-0.0068,-0.0071,-0.0142,-0.0117,-0.0115,-0.0111,-0.0178,-0.0182,-0.0186,-0.0137,-0.0137,-0.0136,0,0,0.0302,0.0296,0.0286,0.0277,0.0257,0.0241,0.0238,0.0207,0.0188,0.0152,0.011,0.0066,-0.0,-0.0045,-0.0076,-0.01,-0.0135,-0.0116,-0.0097,-0.016,-0.0164,-0.0168,-0.0199,-0.0206,-0.0116,-0.0116,-0.0116,0,0.0296,0.029,0.0278,0.027,0.0265,0.0245,0.0237,0.0214,0.0169,0.0153,0.0144,0.0043,-0.0002,-0.0063,-0.0069,-0.0097,-0.0128,-0.009,-0.0157,-0.0162,-0.0166,-0.0198,-0.0206,-0.0114,-0.0114,-0.0114,-0.0114,0,0.0282,0.0282,0.0275,0.0264,0.0256,0.0247,0.0226,0.021,0.0192,0.0168,0.0114,0.0054,-0.0002,-0.0027,-0.0053,-0.011,-0.0119,-0.0145,-0.0152,-0.0167,-0.02,-0.0209,-0.0111,-0.0111,-0.0112,-0.0113,0,0,0.0249,0.0264,0.0261,0.0274,0.0258,0.0254,0.0233,0.021,0.0205,0.0154,0.0136,0.0052,0.0032,-0.0005,-0.0049,-0.0102,-0.0153,-0.0129,-0.0133,-0.0144,-0.0273,-0.0191,-0.0193,-0.0192,-0.0194,-0.0195,-0.0276,0,0.0238,0.0246,0.0248,0.0257,0.0262,0.0255,0.0247,0.0225,0.0204,0.0182,0.0114,0.0082,0.0035,0.0023,-0.0043,-0.0123,-0.0178,-0.0127,-0.0269,-0.0273,-0.0186,-0.0202,-0.0173,-0.0235,-0.0286,-0.0287,-0.0288,0,0.0212,0.0232,0.0244,0.0281,0.0283,0.0285,0.0288,0.028,0.0242,0.0226,0.0175,0.0135,0.0057,0.0026,-0.013,-0.0095,-0.0178,-0.0244,-0.0249,-0.0195,-0.0208,-0.0234,-0.0251,-0.0304,-0.0303,-0.0302,-0.0301,0,0.02,0.0225,0.0247,0.0255,0.0284,0.0293,0.0307,0.029,0.0302,0.0262,0.0269,0.0161,0.0137,-0.0006,-0.0117,-0.0134,-0.0274,-0.0322,-0.0332,-0.0327,-0.034,-0.0332,-0.044,-0.044,-0.044,-0.044,-0.0439,0,0.0184,0.0199,0.0252,0.0265,0.0306,0.0318,0.0351,0.0346,0.0354,0.0382,0.0301,0.0309,0.013,0.0043,-0.0101,-0.0218,-0.0268,-0.0323,-0.0345,-0.0319,-0.0308,-0.0403,-0.0397,-0.0443,-0.0442,-0.0441,-0.0441,0,0.0157,0.0185,0.0223,0.0279,0.0301,0.0333,0.0404,0.0436,0.0433,0.047,0.0469,0.0415,0.0318,0.0149,-0.0049,-0.0158,-0.0305,-0.0338,-0.0265,-0.0275,-0.0327,-0.0319,-0.0381,-0.0379,-0.0377,-0.0376,-0.0374,0,0.0144,0.016,0.024,0.0282,0.0312,0.0372,0.0425,0.0463,0.0514,0.0548,0.0579,0.0522,0.05,0.0265,0.007,-0.0148,-0.0229,-0.0262,-0.0293,-0.0307,-0.0323,-0.0318,-0.0312,-0.0303,-0.0302,-0.03,-0.0299,0,0.0134,0.0161,0.0206,0.0294,0.0364,0.0451,0.0536,0.0597,0.0659,0.0705,0.0773,0.0764,0.0591,0.04,0.0143,0.0003,-0.0225,-0.0234,-0.0304,-0.0291,-0.0232,-0.0248,-0.0246,-0.0286,-0.0288,-0.0289,-0.0289,-0.029,0.0137,0.017,0.0239,0.0319,0.0406,0.0533,0.0614,0.0727,0.084,0.0932,0.0913,0.0865,0.0574,0.026,0.0096,-0.0047,-0.0078,-0.0213,-0.0219,-0.0227,-0.0172,-0.011,-0.013,-0.0131,-0.0131,-0.0131,-0.0132,0,0.0162,0.0197,0.0267,0.0384,0.0484,0.0523,0.069,0.0797,0.0956,0.0998,0.1047,0.0736,0.053,0.0268,0.0091,-0.0054,-0.0081,-0.0114,-0.0164,-0.0174,-0.0184,-0.013,-0.0076,-0.0076,-0.0076,-0.0076,0,0,0.0186,0.0249,0.0286,0.0436,0.0508,0.0648,0.0747,0.0927,0.1,0.1074,0.0995,0.0815,0.0483,0.028,0.01,0.005,-0.0013,0.0049,0.002,-0.0022,-0.003,-0.0226,-0.015,0,0,0,0,0]}],[{"header":{"parameterUnit":"m.s-1","parameterCategory":2,"la1":30.2991,"la2":30.254,"lo1":-89.0895,"lo2":-89.0444,"dy":0.0017,"dx":0.0017,"nx":28,"ny":28,"refTime":"2025-07-29T21:00:00:Z","depth":"4","parameterNumber":2,"parameterNumberName":"U-component_of_CURRENTS"},"data":[0,0,0,0,0,0,0,0,0,0,0,0,0,0,0,0,0,0,0,0,0,0,0,0,0,0,0,0,0,0,0,0,0,0,0,0,0,0,0,0,0,0,0,0,0,0,0,0,0,0,0,0,0,0,0,0,0,0,-0.0407,-0.0408,0,-0.0448,-0.0449,-0.0449,-0.0444,-0.0444,-0.0443,-0.0443,-0.0491,-0.0492,-0.0494,0,0,0,0,0,0,0,0,0,0,0,0,0,-0.035,-0.0351,-0.0407,-0.0408,-0.0409,-0.0448,-0.0449,-0.0449,-0.0444,-0.0444,-0.0443,-0.0443,-0.049,-0.0492,-0.0494,0,0,0,0,0,0,0,0,0,0,0,0,0,-0.0378,-0.0351,-0.0407,-0.0414,-0.0415,-0.0448,-0.0449,-0.0449,-0.0444,-0.0444,-0.0443,-0.0443,-0.049,-0.0492,-0.0494,-0.0519,0,0,-0.0502,-0.0503,0,0,0,0,0,0,0,0,-0.0377,-0.038,-0.0412,-0.0414,-0.0415,-0.0444,-0.0446,-0.0474,-0.0444,-0.0429,-0.0443,-0.0443,-0.0479,-0.0482,-0.0485,-0.0521,-0.0523,-0.0502,-0.0503,-0.0504,-0.0505,0,0,0,0,0,0,0,-0.0375,-0.0378,-0.042,-0.0413,-0.0415,-0.0424,-0.0427,-0.0451,-0.0453,-0.0431,-0.0431,-0.0442,-0.0479,-0.0483,-0.0487,-0.0524,-0.0502,-0.0504,-0.0505,-0.0506,-0.0609,-0.061,0,0,0,0,0,0,-0.0376,-0.0376,-0.0419,-0.0421,-0.0398,-0.0426,-0.0429,-0.0432,-0.0453,-0.0457,-0.0442,-0.0442,-0.0479,-0.0484,-0.0488,-0.0523,-0.0504,-0.0506,-0.0508,-0.0608,-0.0609,-0.0611,0,0,0,0,0,0,-0.0375,-0.0379,-0.0417,-0.0403,-0.0409,-0.0427,-0.0431,-0.0433,-0.0441,-0.0463,-0.0465,-0.0448,-0.0479,-0.0485,-0.0516,-0.0525,-0.0508,-0.051,-0.0606,-0.0608,-0.061,-0.0591,0,0,0,0,0,0,-0.0373,-0.0378,-0.0393,-0.0403,-0.041,-0.0434,-0.0432,-0.0435,-0.045,-0.0449,-0.0469,-0.0473,-0.0479,-0.0512,-0.0518,-0.0528,-0.0512,-0.0605,-0.0607,-0.061,-0.059,-0.0592,-0.0594,0,0,0,0,0,-0.037,-0.0388,-0.0393,-0.04,-0.0426,-0.0435,-0.0439,-0.0448,-0.045,-0.0453,-0.0472,-0.0472,-0.0532,-0.0515,-0.0522,-0.0532,-0.0603,-0.0607,-0.0609,-0.0589,-0.0592,-0.0594,0,0,0,0,0,0,-0.0373,-0.039,-0.0396,-0.0419,-0.0427,-0.0436,-0.0454,-0.0453,-0.047,-0.0476,-0.0486,-0.0492,-0.0525,-0.0538,-0.0519,-0.0573,-0.0569,-0.0574,-0.0552,-0.0555,-0.0556,-0.0544,-0.0514,0,0,0,0,0,-0.0382,-0.04,-0.0409,-0.043,-0.0436,-0.0445,-0.0457,-0.0457,-0.0471,-0.0477,-0.049,-0.0516,-0.0543,-0.0555,-0.0581,-0.0608,-0.06,-0.0623,-0.0625,-0.0626,-0.0624,-0.063,-0.0631,-0.0621,-0.0621,-0.0621,0,0,-0.0388,-0.0405,-0.0414,-0.0433,-0.0444,-0.0451,-0.045,-0.0466,-0.0471,-0.0483,-0.0503,-0.0525,-0.0555,-0.0584,-0.06,-0.0593,-0.0623,-0.063,-0.0631,-0.0627,-0.0633,-0.0634,-0.0634,-0.0623,-0.0622,-0.0622,0,0,-0.04,-0.0425,-0.0435,-0.0444,-0.0464,-0.047,-0.0473,-0.0481,-0.0486,-0.0507,-0.0522,-0.0547,-0.0585,-0.0602,-0.0617,-0.065,-0.0636,-0.0665,-0.0657,-0.0664,-0.0663,-0.0664,-0.0631,-0.0628,-0.0661,-0.0661,-0.066,0,-0.0407,-0.0422,-0.044,-0.045,-0.0462,-0.0475,-0.0479,-0.049,-0.0505,-0.0512,-0.0514,-0.057,-0.0592,-0.0624,-0.0635,-0.0652,-0.064,-0.0639,-0.0662,-0.0663,-0.0663,-0.063,-0.0627,-0.066,-0.066,-0.066,-0.066,0,-0.0411,-0.0433,-0.0444,-0.046,-0.0473,-0.0484,-0.0496,-0.0509,-0.052,-0.0524,-0.0556,-0.0584,-0.0608,-0.0628,-0.064,-0.0661,-0.0645,-0.0664,-0.0646,-0.0662,-0.0627,-0.0624,-0.0659,-0.0659,-0.0659,-0.066,0,0,-0.0402,-0.0436,-0.0445,-0.0452,-0.0479,-0.0484,-0.0506,-0.0519,-0.0527,-0.0547,-0.0553,-0.0602,-0.0605,-0.0625,-0.0644,-0.0653,-0.0639,-0.0656,-0.0656,-0.0604,-0.062,-0.0546,-0.0536,-0.0658,-0.0658,-0.0658,-0.0584,0,-0.0399,-0.0416,-0.0438,-0.0458,-0.0462,-0.0488,-0.0504,-0.052,-0.0534,-0.0544,-0.0571,-0.0586,-0.0607,-0.0612,-0.0628,-0.0647,-0.0636,-0.0655,-0.0629,-0.0628,-0.0546,-0.0533,-0.0659,-0.0582,-0.0581,-0.058,-0.058,0,-0.0393,-0.0407,-0.0422,-0.0449,-0.0455,-0.047,-0.0495,-0.0506,-0.0528,-0.0535,-0.0552,-0.0565,-0.0583,-0.0598,-0.0612,-0.0622,-0.0614,-0.0621,-0.0619,-0.0556,-0.055,-0.0572,-0.0575,-0.0576,-0.0576,-0.0576,-0.0577,0,-0.0368,-0.0399,-0.0412,-0.0422,-0.0452,-0.0466,-0.0478,-0.0502,-0.0505,-0.0516,-0.0513,-0.0541,-0.054,-0.0558,-0.0567,-0.0586,-0.057,-0.0597,-0.0515,-0.0509,-0.0604,-0.0605,-0.059,-0.059,-0.059,-0.059,-0.059,0,-0.0356,-0.0369,-0.0403,-0.0409,-0.0421,-0.0445,-0.0453,-0.0468,-0.048,-0.0473,-0.0497,-0.0486,-0.0531,-0.0529,-0.0547,-0.0508,-0.0545,-0.0498,-0.0487,-0.0596,-0.0597,-0.06,-0.0602,-0.0587,-0.0588,-0.0588,-0.0589,0,-0.0333,-0.0358,-0.0373,-0.0405,-0.041,-0.0417,-0.0428,-0.0427,-0.044,-0.043,-0.0425,-0.0435,-0.0416,-0.0445,-0.0457,-0.0456,-0.0447,-0.0421,-0.0498,-0.0495,-0.0382,-0.0384,-0.0316,-0.0313,-0.031,-0.0308,-0.0306,0,-0.0325,-0.0329,-0.0361,-0.0365,-0.0383,-0.0389,-0.0387,-0.0402,-0.0395,-0.0389,-0.0377,-0.0353,-0.0356,-0.0296,-0.0345,-0.0337,-0.0345,-0.0325,-0.0387,-0.0359,-0.0355,-0.0362,-0.0368,-0.0302,-0.0301,-0.03,-0.03,0,-0.0303,-0.0321,-0.0333,-0.0338,-0.0346,-0.0338,-0.0333,-0.0313,-0.032,-0.0348,-0.0289,-0.0266,-0.0233,-0.0235,-0.0219,-0.0232,-0.034,-0.0297,-0.0304,-0.0363,-0.0341,-0.0341,-0.035,-0.029,-0.0292,-0.0293,-0.0293,0,-0.0292,-0.0291,-0.0305,-0.0308,-0.0308,-0.0274,-0.0275,-0.0246,-0.0235,-0.0234,-0.021,-0.0197,-0.0209,-0.0176,-0.0175,-0.0165,-0.0175,-0.0183,-0.0196,-0.0207,-0.0213,-0.0172,-0.0043,0,0,0,0,0,-0.0275,-0.026,-0.0263,-0.0251,-0.0246,-0.0245,-0.0236,-0.0237,-0.0242,-0.0182,-0.0191,-0.0155,-0.0118,-0.0117,-0.0086,-0.0144,-0.0189,-0.0108,-0.0209,-0.0239,-0.025,-0.0271,0,0,0,0,0,0,-0.0263,-0.0259,-0.0252,-0.0204,-0.018,-0.0162,-0.0153,-0.0156,-0.0121,-0.0132,-0.0109,-0.0134,-0.0106,-0.0127,-0.0079,-0.0082,-0.0137,-0.0114,-0.0113,-0.0233,-0.0243,-0.0251,-0.0277,0,0,0,0,0]},{"header":{"parameterUnit":"m.s-1","parameterCategory":2,"la1":30.2991,"la2":30.254,"lo1":-89.0895,"lo2":-89.0444,"dy":0.0017,"dx":0.0017,"nx":28,"ny":28,"refTime":"2025-07-29T21:00:00:Z","depth":"4","parameterNumber":3,"parameterNumberName":"V-component_of_CURRENTS"},"data":[0,0,0,0,0,0,0,0,0,0,0,0,0,0,0,0,0,0,0,0,0,0,0,0,0,0,0,0,0,0,0,0,0,0,0,0,0,0,0,0,0,0,0,0,0,0,0,0,0,0,0,0,0,0,0,0,0,0,0.0096,0.0096,0,0.0072,0.0071,0.0071,0.006,0.006,0.0061,0.0061,0.0057,0.0056,0.0056,0,0,0,0,0,0,0,0,0,0,0,0,0,0.0111,0.011,0.0096,0.0096,0.0096,0.0072,0.0071,0.0071,0.006,0.006,0.0061,0.0061,0.0057,0.0056,0.0056,0,0,0,0,0,0,0,0,0,0,0,0,0,0.0096,0.011,0.0096,0.0089,0.0088,0.0072,0.0071,0.0071,0.006,0.006,0.0061,0.0061,0.0057,0.0056,0.0056,0.0048,0,0,0.0055,0.0055,0,0,0,0,0,0,0,0,0.0097,0.0095,0.009,0.0089,0.0088,0.0071,0.0075,0.0065,0.006,0.0069,0.0061,0.0061,0.0064,0.0063,0.0055,0.0048,0.0048,0.0055,0.0055,0.0054,0.0054,0,0,0,0,0,0,0,0.0098,0.0096,0.0085,0.009,0.0089,0.0079,0.0077,0.0073,0.0065,0.0068,0.0068,0.0067,0.0063,0.0056,0.0055,0.0048,0.0055,0.0054,0.0054,0.0054,0.0005,0.0004,0,0,0,0,0,0,0.0105,0.0097,0.0086,0.0084,0.0095,0.0079,0.0076,0.0075,0.0064,0.0063,0.0067,0.0067,0.0056,0.0056,0.0055,0.0024,0.0054,0.0054,0.0054,0.0006,0.0004,0.0003,0,0,0,0,0,0,0.0105,0.0104,0.0087,0.0091,0.0089,0.0078,0.0076,0.0074,0.0058,0.0063,0.0062,0.0053,0.0057,0.0056,0.0035,0.0024,0.0054,0.0053,0.0007,0.0005,0.0004,-0.0025,0,0,0,0,0,0,0.0105,0.0104,0.01,0.0092,0.0089,0.0066,0.0076,0.0074,0.0059,0.0058,0.0051,0.0051,0.0057,0.0035,0.0034,0.0024,0.0053,0.0008,0.0006,0.0004,-0.0023,-0.0028,-0.0032,0,0,0,0,0,0.0106,0.01,0.01,0.0099,0.0086,0.0066,0.0062,0.0055,0.0058,0.0043,0.0036,0.0051,0.0022,0.0034,0.0033,0.0023,0.0009,0.0007,0.0004,-0.0021,-0.0027,-0.0032,0,0,0,0,0,0,0.0102,0.0098,0.0098,0.0091,0.0075,0.0064,0.0053,0.0048,0.003,0.0029,0.0035,0.0034,0.0011,0.0017,0.003,0.0001,0.0019,0.0016,-0.0,-0.0005,-0.001,-0.0001,0.0053,0,0,0,0,0,0.0101,0.0096,0.0087,0.0079,0.0071,0.006,0.005,0.0042,0.0029,0.0021,0.0016,0.001,0.0001,-0.0002,-0.0012,-0.0027,-0.0005,-0.0034,-0.0039,-0.0042,-0.0037,-0.0021,-0.0023,-0.0005,-0.0005,-0.0005,0,0,0.0097,0.0095,0.0092,0.0077,0.0066,0.0048,0.0053,0.0032,0.0015,0.0025,-0.0004,-0.0009,-0.0009,-0.0029,-0.0038,-0.0024,-0.0037,-0.0045,-0.0048,-0.0041,-0.0024,-0.0025,-0.0027,-0.0006,-0.0006,-0.0006,0,0,0.0088,0.0084,0.0076,0.0061,0.0043,0.0032,0.0023,0.0003,-0.0009,-0.0037,-0.0034,-0.0046,-0.0064,-0.0063,-0.0063,-0.0098,-0.0065,-0.0103,-0.0111,-0.0097,-0.0097,-0.0098,-0.0071,-0.0069,-0.0099,-0.0099,-0.0099,0,0.0083,0.0074,0.0068,0.0053,0.0037,0.0024,0.0002,-0.0014,-0.004,-0.005,-0.0052,-0.0076,-0.0078,-0.0088,-0.0101,-0.0106,-0.0087,-0.0089,-0.01,-0.01,-0.01,-0.0073,-0.007,-0.0101,-0.0101,-0.0101,-0.0101,0,0.0068,0.0056,0.0046,0.0025,0.0005,-0.0019,-0.0039,-0.0064,-0.0079,-0.0088,-0.0111,-0.0116,-0.0124,-0.013,-0.0126,-0.0129,-0.0113,-0.011,-0.0082,-0.0103,-0.0074,-0.007,-0.0104,-0.0103,-0.0102,-0.0102,0,0,0.0066,0.0042,0.0038,0.0019,-0.0014,-0.0036,-0.0067,-0.0096,-0.0114,-0.0133,-0.0149,-0.0164,-0.0157,-0.0158,-0.0152,-0.0139,-0.0125,-0.0124,-0.0123,-0.0089,-0.0082,-0.0132,-0.0132,-0.0123,-0.0122,-0.0122,-0.006,0,0.0052,0.0028,0.0014,-0.0028,-0.0049,-0.0076,-0.0104,-0.0132,-0.0151,-0.0171,-0.0166,-0.0178,-0.0169,-0.0171,-0.0159,-0.0137,-0.0118,-0.0141,-0.0074,-0.0071,-0.0106,-0.0131,-0.0121,-0.0057,-0.0056,-0.0056,-0.0055,0,0.0037,0.0022,-0.001,-0.0057,-0.007,-0.01,-0.015,-0.0174,-0.0196,-0.0205,-0.0206,-0.0201,-0.0187,-0.0179,-0.0133,-0.0148,-0.0117,-0.0094,-0.0091,-0.0124,-0.0116,-0.0033,-0.0048,-0.0049,-0.0049,-0.005,-0.005,0,0.0036,-0.0003,-0.0029,-0.0045,-0.0094,-0.0122,-0.0152,-0.0185,-0.0204,-0.0216,-0.0221,-0.0208,-0.0194,-0.0161,-0.012,-0.0122,-0.0067,-0.0062,-0.0072,-0.0074,-0.003,-0.003,-0.0026,-0.0026,-0.0026,-0.0026,-0.0026,0,0.0021,-0.0003,-0.0033,-0.0051,-0.0098,-0.0128,-0.0174,-0.0199,-0.0221,-0.0237,-0.0229,-0.0233,-0.0189,-0.0158,-0.012,-0.0091,-0.0063,-0.0076,-0.0068,-0.0045,-0.0047,-0.0027,-0.0028,-0.0024,-0.0024,-0.0025,-0.0025,0,0.0016,0.0003,-0.0033,-0.008,-0.01,-0.0134,-0.0188,-0.0216,-0.0226,-0.0243,-0.0241,-0.0237,-0.0212,-0.0168,-0.0111,-0.0092,-0.0057,-0.0048,-0.0019,-0.0009,-0.0068,-0.0071,-0.0054,-0.0056,-0.0057,-0.0058,-0.0059,0,0.0011,-0.0003,-0.005,-0.0077,-0.0103,-0.0151,-0.0187,-0.0218,-0.0237,-0.025,-0.0256,-0.0242,-0.0236,-0.0179,-0.0149,-0.0088,-0.0084,-0.0047,-0.0071,-0.0081,-0.0074,-0.0075,-0.0077,-0.0061,-0.0061,-0.0061,-0.0062,0,-0.0003,-0.0014,-0.0042,-0.0087,-0.0131,-0.0183,-0.0228,-0.0231,-0.0257,-0.0261,-0.0263,-0.0251,-0.0234,-0.0204,-0.016,-0.0118,-0.0067,-0.006,-0.0057,-0.0078,-0.0088,-0.008,-0.0081,-0.0066,-0.0065,-0.0065,-0.0065,0,-0.0016,-0.0035,-0.0064,-0.0107,-0.0156,-0.0204,-0.0227,-0.0252,-0.0269,-0.0264,-0.0269,-0.0254,-0.0243,-0.0221,-0.0183,-0.0154,-0.0151,-0.0122,-0.0116,-0.0111,-0.0163,-0.0186,-0.019,0,0,0,0,0,-0.0031,-0.005,-0.0086,-0.0138,-0.0181,-0.0211,-0.0254,-0.0267,-0.0268,-0.0268,-0.0265,-0.0255,-0.0233,-0.023,-0.021,-0.0217,-0.015,-0.0194,-0.0114,-0.0089,-0.0084,-0.0144,0,0,0,0,0,0,-0.0049,-0.0074,-0.0085,-0.0145,-0.0178,-0.0238,-0.026,-0.0268,-0.0266,-0.0257,-0.0246,-0.0244,-0.0225,-0.0236,-0.0205,-0.0202,-0.0148,-0.0186,-0.0186,-0.0092,-0.0087,-0.0083,-0.0143,0,0,0,0,0]}]]